FW2422 Weather Reports


Display with metric or nautical units.
time (UTC)temp
F
wind
direction
speed
MPH
gust
MPH
rain 1hr
in
rain 24hr
in
rain mn
in
humidity
%
barometer
mb
20260901204513 99 77 1.0 3.0 0.00 0.00 0.00 40 1013.1
20260901203009 99 122 3.0 9.0 0.00 0.00 0.00 39 1013.2
20260901201505 100 210 1.0 5.0 0.00 0.00 0.00 39 1013.3
20260901200004 101 288 0.0 0.0 0.00 0.00 0.00 38 1013.6
20260901194604 98 45 0.0 4.0 0.00 0.00 0.00 42 1013.7
20260901193105 97 120 1.0 4.0 0.00 0.00 0.00 42 1014.0
20260901191557 97 138 1.0 6.0 0.00 0.00 0.00 41 1014.1
20260901190109 98 105 0.0 5.0 0.00 0.00 0.00 41 1014.4
20260901184604 98 108 0.0 8.0 0.00 0.00 0.00 40 1014.5
20260901183053 98 47 0.0 4.0 0.00 0.00 0.00 41 1014.9
20260901181553 98 205 1.0 7.0 0.00 0.00 0.00 42 1015.2
20260901180051 98 111 1.0 4.0 0.00 0.00 0.00 42 1015.4
20260901174601 95 60 0.0 3.0 0.00 0.00 0.00 46 1015.7
20260901173051 94 106 3.0 8.0 0.00 0.00 0.00 47 1015.9
20260901171552 95 282 0.0 2.0 0.00 0.00 0.00 46 1016.1
20260901170145 96 252 1.0 6.0 0.00 0.00 0.00 46 1016.2
20260901164550 96 131 2.0 5.0 0.00 0.00 0.00 46 1016.3
20260901163048 96 165 0.0 5.0 0.00 0.00 0.00 47 1016.4
20260901161555 96 281 0.0 3.0 0.00 0.00 0.00 47 1016.4
20260901160039 93 276 0.0 4.0 0.00 0.00 0.00 52 1016.4
20260901154538 92 258 0.0 8.0 0.00 0.00 0.00 53 1016.4
20260901153044 92 290 1.0 6.0 0.00 0.00 0.00 53 1016.5
20260901151535 92 257 1.0 5.0 0.00 0.00 0.00 53 1016.3
20260901150031 91 153 0.0 6.0 0.00 0.00 0.00 55 1016.4
20260901144529 90 139 1.0 6.0 0.00 0.00 0.00 57 1016.7
20260901143027 90 203 1.0 3.0 0.00 0.00 0.00 57 1016.8
20260901141535 89 274 0.0 3.0 0.00 0.00 0.00 59 1016.7
20260901140028 89 172 0.0 2.0 0.00 0.00 0.00 61 1016.7
20260901134520 87 160 0.0 3.0 0.00 0.00 0.00 62 1016.7
20260901133017 86 224 0.0 2.0 0.00 0.00 0.00 63 1016.7
20260901131523 85 213 0.0 0.0 0.00 0.00 0.00 65 1016.7
20260901130014 83 151 0.0 2.0 0.00 0.00 0.00 68 1016.5
20260901124512 82 206 0.0 3.0 0.00 0.00 0.00 70 1016.3
20260901123010 80 169 0.0 2.0 0.00 0.00 0.00 72 1016.1
20260901121508 79 146 0.0 0.0 0.00 0.00 0.00 74 1015.9
20260901120005 79 146 0.0 0.0 0.00 0.00 0.00 73 1015.7
20260901114504 80 146 0.0 0.0 0.00 0.00 0.00 72 1015.5
20260901113005 80 146 0.0 1.0 0.00 0.00 0.00 71 1015.4
20260901111501 80 147 0.0 0.0 0.00 0.00 0.00 71 1015.3
20260901110111 80 207 0.0 0.0 0.00 0.00 0.00 71 1015.3
20260901104604 80 158 0.0 0.0 0.00 0.00 0.00 70 1015.2
20260901103058 80 158 0.0 0.0 0.00 0.00 0.00 69 1015.3
20260901101606 81 158 0.0 0.0 0.00 0.00 0.00 67 1015.3
20260901100106 81 158 0.0 0.0 0.00 0.00 0.00 66 1015.3
20260901094559 81 151 0.0 0.0 0.00 0.00 0.00 65 1015.4
20260901093052 81 135 0.0 0.0 0.00 0.00 0.00 65 1015.4
20260901091552 81 140 0.0 1.0 0.00 0.00 0.00 64 1015.4
20260901090049 82 84 0.0 0.0 0.00 0.00 0.00 63 1015.3
20260901084605 82 131 0.0 0.0 0.00 0.00 0.00 62 1015.2
20260901083049 82 180 0.0 0.0 0.00 0.00 0.00 61 1015.1
20260901081543 83 180 0.0 0.0 0.00 0.00 0.00 60 1015.1
20260901080041 83 180 0.0 0.0 0.00 0.00 0.00 58 1015.2
20260901074538 84 165 0.0 0.0 0.00 0.00 0.00 57 1015.1
20260901073040 85 96 0.0 2.0 0.00 0.00 0.00 57 1015.0
20260901071536 85 96 0.0 1.0 0.00 0.00 0.00 56 1015.0
20260901070032 85 199 0.0 2.0 0.00 0.00 0.00 55 1014.9
20260901064536 86 77 0.0 3.0 0.00 0.00 0.00 54 1014.9
20260901063032 86 167 0.0 2.0 0.00 0.00 0.00 53 1014.8
20260901061526 87 159 1.0 5.0 0.00 0.00 0.00 52 1014.5
20260901060031 87 243 0.0 5.0 0.00 0.00 0.00 51 1014.5
20260901054522 87 219 0.0 6.0 0.00 0.00 0.00 51 1014.3
20260901053021 87 152 0.0 6.0 0.00 0.00 0.00 50 1014.1
20260901051519 88 121 0.0 8.0 0.00 0.00 0.00 49 1014.1
20260901050017 88 96 1.0 6.0 0.00 0.00 0.00 47 1014.0
20260901044516 88 85 0.0 3.0 0.00 0.00 0.00 46 1013.8
20260901043016 88 103 0.0 3.0 0.00 0.00 0.00 46 1013.7
20260901041523 88 127 0.0 0.0 0.00 0.00 0.00 45 1013.8
20260901040015 89 119 0.0 2.0 0.00 0.00 0.00 44 1013.6
20260901034521 89 145 0.0 0.0 0.00 0.00 0.00 44 1013.6
20260901033014 90 117 0.0 1.0 0.00 0.00 0.00 43 1013.6
20260901031531 90 152 0.0 2.0 0.00 0.00 0.00 43 1013.5
20260901030020 91 135 0.0 2.0 0.00 0.00 0.00 42 1013.4
20260901024521 91 174 0.0 2.0 0.00 0.00 0.00 41 1013.2
20260901023011 91 172 0.0 3.0 0.00 0.00 0.00 40 1013.1
20260901021511 92 162 0.0 2.0 0.00 0.00 0.00 40 1013.1
20260901020009 92 147 0.0 2.0 0.00 0.00 0.00 39 1012.9
20260901014508 93 101 0.0 1.0 0.00 0.00 0.00 38 1012.9
20260901013009 94 134 0.0 2.0 0.00 0.00 0.00 37 1012.8
20260901011508 94 122 0.0 2.0 0.00 0.00 0.00 36 1012.8
20260901010014 95 151 0.0 3.0 0.00 0.00 0.00 34 1012.6
20260901004507 96 154 0.0 5.0 0.00 0.00 0.00 32 1012.5
20260901003006 97 171 0.0 6.0 0.00 0.00 0.00 31 1012.5
20260901001513 99 136 2.0 10.0 0.00 0.00 0.00 29 1012.5
20260901000012 100 205 0.0 4.0 0.00 0.00 0.00 28 1012.5
20260831234504 100 291 2.0 8.0 0.00 0.00 0.00 28 1012.5
20260831233004 101 165 0.0 5.0 0.00 0.00 0.00 28 1012.4
20260831231503 101 124 2.0 7.0 0.00 0.00 0.00 27 1012.4
20260831230140 101 172 0.0 6.0 0.00 0.00 0.00 28 1012.5
20260831224500 101 174 0.0 8.0 0.00 0.00 0.00 28 1012.6
20260831223101 101 214 2.0 8.0 0.00 0.00 0.00 28 1012.8
20260831221627 101 245 0.0 8.0 0.00 0.00 0.00 27 1012.8
20260831220057 101 109 2.0 9.0 0.00 0.00 0.00 28 1012.9
20260831214555 101 110 0.0 7.0 0.00 0.00 0.00 30 1013.1
20260831213056 101 281 1.0 6.0 0.00 0.00 0.00 30 1013.2
20260831211603 100 203 3.0 9.0 0.00 0.00 0.00 31 1013.3
20260831210053 98 178 2.0 5.0 0.00 0.00 0.00 31 1013.5